TimeMDT,TemperatureF,Dew PointF,Humidity,Sea Level PressureIn,VisibilityMPH,Wind Direction,Wind SpeedMPH,Gust SpeedMPH,PrecipitationIn,Events,Conditions,WindDirDegrees,DateUTC
12:53 AM,21.9,9.0,58,29.88,10.0,NE,3.5,-,N/A,,Clear,50,2013-04-13 06:53:00
1:53 AM,18.0,9.0,68,29.87,10.0,East,4.6,-,N/A,,Clear,80,2013-04-13 07:53:00
2:53 AM,19.0,8.1,62,29.84,10.0,NE,4.6,-,N/A,,Clear,50,2013-04-13 08:53:00
3:53 AM,16.0,7.0,68,29.84,10.0,ENE,4.6,-,N/A,,Clear,60,2013-04-13 09:53:00
4:53 AM,18.0,7.0,62,29.81,10.0,Variable,3.5,-,N/A,,Clear,0,2013-04-13 10:53:00
5:53 AM,17.1,7.0,65,29.82,10.0,ENE,6.9,-,N/A,,Clear,70,2013-04-13 11:53:00
6:53 AM,18.0,6.1,60,29.77,10.0,East,8.1,-,N/A,,Clear,100,2013-04-13 12:53:00
7:53 AM,21.9,9.0,58,29.77,10.0,Calm,Calm,-,N/A,,Clear,0,2013-04-13 13:53:00
8:53 AM,35.1,1.9,25,29.66,10.0,Variable,3.5,-,N/A,,Clear,0,2013-04-13 14:53:00
9:53 AM,37.0,3.0,24,29.69,10.0,Variable,3.5,-,N/A,,Clear,0,2013-04-13 15:53:00
10:53 AM,39.9,7.0,26,29.64,10.0,SSW,9.2,19.6,N/A,,Partly Cloudy,210,2013-04-13 16:53:00
11:53 AM,39.0,9.0,29,29.64,10.0,WSW,4.6,-,N/A,,Overcast,250,2013-04-13 17:53:00
12:53 PM,39.9,10.0,29,29.60,10.0,West,11.5,20.7,N/A,,Overcast,260,2013-04-13 18:53:00
1:44 PM,39.2,10.4,31,29.78,10.0,West,16.1,31.1,N/A,,Overcast,280,2013-04-13 19:44:00
1:53 PM,39.9,10.9,31,29.60,10.0,SW,13.8,27.6,N/A,,Overcast,230,2013-04-13 19:53:00
2:53 PM,39.9,12.0,32,29.56,10.0,WSW,9.2,21.9,N/A,,Overcast,250,2013-04-13 20:53:00
3:53 PM,42.1,12.0,29,29.54,10.0,SW,13.8,34.5,N/A,,Mostly Cloudy,220,2013-04-13 21:53:00
4:53 PM,39.9,12.9,33,29.51,10.0,SW,16.1,26.5,N/A,,Partly Cloudy,220,2013-04-13 22:53:00
5:53 PM,39.0,16.0,39,29.50,10.0,SSW,12.7,31.1,N/A,,Overcast,200,2013-04-13 23:53:00
6:53 PM,37.0,19.0,48,29.48,10.0,South,10.4,24.2,N/A,,Mostly Cloudy,190,2013-04-14 00:53:00
7:53 PM,34.0,21.0,59,29.47,10.0,ESE,5.8,-,N/A,,Mostly Cloudy,120,2013-04-14 01:53:00
8:53 PM,34.0,23.0,64,29.35,10.0,SSE,12.7,-,N/A,,Overcast,160,2013-04-14 02:53:00
9:53 PM,30.9,28.0,89,29.38,4.0,SSE,11.5,-,0.00,Snow,Light Snow,160,2013-04-14 03:53:00
10:18 PM,30.2,28.4,93,29.63,2.5,SE,9.2,-,0.00,Snow,Light Snow,140,2013-04-14 04:18:00
10:29 PM,30.2,28.4,93,29.61,1.2,SE,9.2,-,0.01,Snow,Light Snow,140,2013-04-14 04:29:00
10:40 PM,30.2,28.4,93,29.61,3.0,SE,5.8,-,0.01,Snow,Light Snow,140,2013-04-14 04:40:00
10:53 PM,30.0,28.0,92,29.33,4.0,SSE,6.9,-,0.01,Snow,Light Snow,150,2013-04-14 04:53:00
10:59 PM,30.2,28.4,93,29.61,1.8,SSE,5.8,-,0.00,Snow,Light Snow,160,2013-04-14 04:59:00
11:12 PM,30.2,28.4,93,29.61,0.8,South,4.6,-,0.01,Snow,Light Snow,170,2013-04-14 05:12:00
11:25 PM,30.2,28.4,93,29.58,0.5,SSE,6.9,-,0.03,Fog-Snow,Snow,150,2013-04-14 05:25:00
11:53 PM,30.0,28.9,96,29.33,0.5,NNW,8.1,-,0.08,Fog-Snow,Snow,330,2013-04-14 05:53:00